sat.trackr.live / text

‹ back to catalog

STARLINK-32588

NORAD 61866 · 2024-202X

PAYLOAD ACTIVE UNKNOWN

§ Identity

Operator
Country
US
Launch date
2024-11-07
Launch site
AFETR
Launch vehicle
Mass (kg)
RCS (m²)

Purposes: comms

External: N2YO · Heavens-Above · Gunter

§ Orbital elements

Epoch: 2026-09-21T13:57:30.496608Z

Period
94.27 min
Inclination
43.0047°
Eccentricity
0.0001131
Mean motion
15.27573466 rev/d
Perigee alt
482.3 km
Apogee alt
483.8 km
Semi-major
6,861.2 km
B*
7.5894e-6
RAAN
211.9636°
Arg perigee
268.7466°
Mean anomaly
91.3256°
Rev number
10,529

§ Raw data

STARLINK-325881 61866U 24202X   26264.58160297 -.00000053  00000+0  75894-5 0  99912 61866  43.0047 211.9636 0001131 268.7466  91.3256 15.27573466105299

JSON: /api/v1/satellites/61866 · /tle

For live sub-satellite position, see the globe view (requires WebGL).

§ Visibility from observer

Set your observer location to see the next 7 days of passes ≥ 10°. The values pass through the URL so the page stays shareable.

No JS? Fill the form by hand. The geolocation button needs JavaScript.